Location: Weymouth Pines Observatory
(42.9326°N, 81.3883°W)
Time: 14:40:29
(UTC-05:00)

Daily predictions for brighter satellites

Satellite Brightness Start Highest point End
(mag) Time Altitude Azimuth Time Altitude Azimuth Time Altitude Azimuth
ATLAS 2AS CENTAUR R/B 3.3 17:07:31 10° SSW 17:15:05 61° ESE 17:23:03 10° NE
ATLAS 3B R/B 2.9 17:10:50 10° NNW 17:17:15 45° NE 17:23:27 10° ESE
Cosmos 1656 Rocket 4.4 17:12:30 10° SW 17:17:54 54° WNW 17:23:18 10° NNE
NOSS 2-3 (E) 4.2 17:13:43 10° SW 17:18:22 69° NW 17:23:50 10° NNE
Cosmos 2142 Rocket 4.5 17:14:11 10° S 17:20:21 78° E 17:26:30 10° N
Meteor 1-4 Rocket 4.1 17:20:32 10° NNW 17:24:00 41° W 17:27:23 10° SSW
SMAP 3.3 17:22:23 10° SE 17:26:49 46° ENE 17:31:16 10° N
USA 161 2.2 17:26:20 10° N 17:29:11 57° WNW 17:32:08 10° SSW
COSMO-SKYMED 1 4.2 17:27:42 10° NE 17:30:29 16° E 17:33:15 10° SE
Cosmos 2279 Rocket 4.0 17:24:34 10° S 17:30:45 65° E 17:36:57 10° NNE
USA 215 3.3 17:24:34 10° SE 17:31:07 85° NE 17:37:41 10° NW
Cosmos 2227 Rocket 2.6 17:26:09 10° NNW 17:31:32 42° ENE 17:36:51 10° SE
Cosmos 2150 Rocket 4.1 17:26:38 10° SSW 17:32:06 84° ESE 17:37:35 10° NNE
Cosmos 1500 4.2 17:29:12 10° NNW 17:32:53 51° W 17:36:31 10° S
Meteor 1-12 Rocket 4.2 17:28:19 10° N 17:34:01 78° E 17:39:48 10° SSE
Aureole 1 Rocket 4.3 17:28:21 10° NNW 17:34:21 84° WSW 17:42:04 10° SSE
Cosmos 2219 3.5 17:31:24 10° NNW 17:37:01 73° WSW 17:42:36 10° SSE
SJ 16-02 2.5 17:35:13 10° SSE 17:38:45 24° E 17:42:19 10° NE
Cosmos 1975 Rocket 3.2 17:34:21 10° S 17:38:49 82° W 17:43:20 10° N
ALOS 3.5 17:36:55 10° ESE 17:40:14 20° ENE 17:43:35 10° NNE
CORIOLIS 4.2 17:36:30 10° SSE 17:41:49 58° ENE 17:47:06 10° N
Cosmos 1271 Rocket 2.7 17:38:38 10° N 17:42:24 60° ENE 17:46:12 10° SSE
ERS-2 3.6 17:39:55 10° ESE 17:42:24 17° ENE 17:44:54 10° NNE
Meteor 2-9 Rocket 4.5 17:38:54 10° N 17:44:08 42° ENE 17:49:13 10° SE
Atlas Centaur 2 4.1 17:42:55 10° SW 17:46:54 19° S 17:50:18 10° SE
Okean 1 4.1 17:44:58 10° SSW 17:48:51 53° W 17:52:45 10° N
Cosmos 1980 Rocket 3.9 17:48:30 10° ESE 17:51:04 13° E 17:52:12 13° E
SPOT 3 Rocket 4.4 17:46:56 10° ESE 17:51:15 27° ENE 17:55:33 10° N
IRS-1A Rocket 4.3 17:46:11 10° SE 17:51:36 54° ENE 17:56:59 10° N
Cosmos 1484 Rocket 3.0 17:53:04 10° S 17:57:04 77° WSW 18:01:07 10° NNW
CENTAUR R/B 4.0 17:51:31 10° NNW 17:57:48 27° NNE 18:02:54 15° ENE
Cosmos 2297 Rocket 2.2 17:52:49 10° NNW 17:58:26 57° ENE 18:03:58 10° SE
Cosmos 724 4.4 17:53:32 10° NNW 17:59:13 53° NE 18:04:53 10° SE
Cosmos 1025 Rocket 4.2 18:01:44 10° SE 18:04:57 21° E 18:05:43 20° ENE
Cosmos 1666 2.8 18:01:26 10° NNW 18:05:11 75° W 18:08:54 10° S
Cosmos 1975 4.3 18:01:34 10° NNW 18:05:22 40° W 18:09:10 10° SSW
Ariane Rocket 3.3 18:01:12 10° S 18:06:14 72° WSW 18:11:18 10° NNW
Abrixas rocket 3.1 18:03:18 10° W 18:06:21 36° NNW 18:07:55 22° NE
Cosmos 1536 Rocket 3.5 18:02:44 10° S 18:07:01 61° E 18:11:18 10° NNE
Cosmos 1656 3.9 18:04:51 10° S 18:10:14 51° ESE 18:14:33 15° NE
ISS -3.1 18:07:20 10° WNW 18:10:33 54° SW 18:13:45 10° SE
Cosmos 1269 Rocket 4.1 18:07:54 10° N 18:13:05 51° ENE 18:18:14 10° SE
PSLV R/B 3.6 18:13:10 10° WSW 18:16:14 48° S 18:17:28 29° ESE
Cosmos 389 Rocket 4.4 18:14:02 10° NNW 18:17:11 32° W 18:20:16 10° SSW
Cosmos 1125 Rocket 3.5 18:12:47 10° S 18:18:02 68° ESE 18:22:43 13° NNE
SKYMED 2 3.7 18:15:01 12° NNE 18:18:52 52° E 18:23:05 10° S
Meteor 2-4 Rocket 3.5 18:13:33 10° S 18:18:59 79° E 18:24:21 10° NNE
USA 238 DEB 4.0 18:15:29 10° NW 18:22:36 78° WSW 18:29:48 10° SSE
USA 238 3.9 18:15:35 10° NW 18:22:43 79° WSW 18:29:54 10° SSE
Meteor 1-13 Rocket 4.4 18:18:15 10° SSW 18:23:49 75° W 18:29:32 10° N
CZ-4 R/B 2.0 18:21:33 10° S 18:25:20 55° W 18:29:13 10° NNW
Cosmos 1048 Rocket 4.0 18:20:44 10° NNW 18:26:10 81° ENE 18:31:31 10° SSE
Cosmos 2266 Rocket 3.9 18:24:37 10° N 18:30:44 90° NE 18:36:54 10° S
Gblst 52 Del rocket 4.4 18:26:32 10° NW 18:32:04 56° NNE 18:35:04 29° E
Cosmos 2369 3.7 18:26:40 10° SSW 18:32:21 88° ESE 18:36:54 17° NNE
Cosmos 2278 3.6 18:27:39 10° SSW 18:33:20 86° ESE 18:37:45 18° NNE
Cosmos 2263 Rocket 4.2 18:33:24 10° NNE 18:33:39 11° NNE 18:33:39 11° NNE
NOAA 12 4.0 18:33:58 10° SSE 18:39:12 68° ENE 18:44:26 10° N
Meteor 1-15 Rocket 4.2 18:33:16 10° N 18:39:13 73° E 18:45:06 10° SSE
Cosmos 372 Rocket 4.0 18:34:03 10° SSW 18:39:16 82° WNW 18:43:18 17° NNE
FENGYUN 3A 3.5 18:36:55 10° SSE 18:42:16 74° ENE 18:47:39 10° N
Okean 2 3.3 18:40:55 10° S 18:44:55 57° E 18:45:16 54° ENE
EO 1 Del DPAF 3.1 18:45:04 37° NNE 18:46:30 88° ESE 18:50:19 10° SSW
DELTA 2 R/B (1) 3.8 18:41:11 10° W 18:46:41 62° S 18:49:04 33° ESE
NOSS 3-2 (A) 4.0 18:44:33 10° NW 18:52:08 86° SW 19:00:23 10° SSE
YAOGAN 1 3.8 18:48:11 10° S 18:52:17 42° W 18:56:25 10° NNW
Cosmos 1697 Rocket 2.6 18:48:02 10° SSW 18:53:41 77° ESE 18:56:12 34° NNE
Cosmos 1515 3.5 18:50:16 10° S 18:54:02 89° SE 18:54:28 70° N
NOSS 3-2 (C) 3.9 18:51:34 10° NW 18:59:09 83° NE 19:07:24 10° SE
Gbstr 26 Del rocket 4.3 18:51:53 10° SW 18:59:56 82° SE 19:02:48 41° ENE
Cosmos 1244 Rocket 4.3 18:57:58 10° N 19:04:08 75° E 19:10:17 10° SSE
ATLAS 2AS CENTAUR R/B 4.0 18:59:10 10° WSW 19:06:32 41° NW 19:12:22 17° NNE
COSMO-SKYMED 1 3.5 19:03:36 16° N 19:06:53 46° WNW 19:11:01 10° SW
ATLAS 3B R/B 3.9 19:01:46 10° NW 19:07:50 39° WSW 19:13:45 10° S
FengYun 1-2 T 4.1 19:05:11 10° SSE 19:10:45 70° ENE 19:16:24 10° N
Cosmos 2227 Rocket 4.1 19:10:33 10° NW 19:15:23 30° WSW 19:20:12 10° SSW
ERS-2 3.9 19:12:30 10° SSW 19:15:50 32° W 19:19:10 10° NNW
SJ 16-02 3.0 19:13:17 10° SW 19:17:11 31° WNW 19:19:26 20° NNW
ALOS 3.2 19:12:50 10° S 19:17:19 47° W 19:21:51 10° NNW
Cosmos 1553 Rocket 3.9 19:19:13 10° S 19:25:36 71° E 19:26:05 68° ENE
NOSS 3-4 (A) 3.5 19:20:56 10° SW 19:27:10 78° NW 19:28:35 56° NNE
NOSS 3-4 (C) 3.5 19:21:02 10° SW 19:27:16 79° NW 19:28:39 57° NNE
SL-08 R/B 4.3 19:21:26 10° N 19:27:45 75° E 19:33:55 10° SSE
Cosmos 1417 Rocket 4.3 19:22:25 10° S 19:28:34 85° E 19:30:03 55° NNE
Okean 1-7 Rocket 4.3 19:27:59 10° SSW 19:31:34 49° WSW 19:31:34 49° WSW
Cosmos 1066 Rocket 4.4 19:27:14 10° S 19:31:38 58° S 19:31:38 58° S
Cosmos 1980 Rocket 2.1 19:28:32 10° SSW 19:34:03 84° WSW 19:34:03 84° WSW
CENTAUR R/B 2.9 19:41:50 10° NW 19:49:46 78° NE 19:50:09 76° E
